Theta_e
311 312 313 313 313 312 312 312 312 311 311 311 312 312 311 311 308 299 294 302 305 314 309 297 298 298 302 301 306 308 297 295 298 299 301 304 303 306 309 308 318 322 321 323 330
311 312 312 312 312 312 312 311 310 311 312 312 312 312 312 311 297 293 305 310 311 311 295 293 293 296 297 299 303 300 296 298 303 303 303 305 303 305 304 306 313 317 324 328 328
311 312 312 312 311 311 311 311 310 311 310 311 312 313 313 306 291 291 309 310 310 304 296 295 295 298 296 297 297 301 297 302 304 306 306 306 303 306 304 301 310 316 320 325 325
310 311 311 311 311 311 311 310 309 310 309 311 312 313 308 293 277 294 308 309 308 299 295 292 291 289 291 290 296 290 298 302 306 307 306 304 306 305 303 305 310 316 324 324 324
310 310 311 311 310 310 310 308 307 308 310 310 312 310 294 286 288 298 307 303 298 296 292 290 287 286 285 290 293 292 292 295 298 301 303 306 303 304 304 308 311 323 324 323 323
310 310 311 311 310 309 309 308 308 309 310 310 311 307 291 281 296 297 297 297 296 294 291 290 287 288 285 289 289 292 291 292 298 299 300 301 303 303 304 307 313 322 321 322 322
310 311 311 310 308 309 309 309 308 309 310 310 310 301 290 287 296 296 296 295 295 294 291 292 291 288 287 286 291 291 287 291 293 297 299 304 300 301 306 307 307 319 319 321 322
311 311 311 310 308 308 308 308 308 308 311 312 308 291 285 297 297 296 295 295 296 296 294 294 293 290 287 289 288 285 284 283 290 294 297 302 293 302 305 303 304 306 313 320 320
310 311 311 309 307 308 307 308 308 307 309 305 293 287 282 299 292 295 292 292 293 293 294 297 292 287 285 279 277 278 275 278 282 289 290 289 285 295 305 305 303 302 303 312 320
310 310 310 308 307 307 305 307 306 301 298 295 293 282 285 287 292 293 294 294 291 289 288 287 283 279 279 277 270 273 273 276 277 284 287 284 284 289 296 292 292 295 297 301 304
310 310 309 307 306 305 296 290 286 285 289 284 285 284 287 292 293 292 294 291 290 285 278 282 278 274 276 278 279 277 275 274 279 283 283 283 284 285 288 289 290 291 293 294 298
310 310 308 307 305 303 294 288 288 288 282 289 288 290 290 291 286 289 293 285 283 278 280 277 274 280 283 282 279 278 275 274 279 283 282 281 280 284 286 288 290 292 293 295 297
310 309 307 307 304 296 292 291 296 293 281 283 288 288 287 289 284 286 289 286 281 279 277 274 278 283 281 279 277 277 276 276 277 280 281 279 278 280 286 289 292 294 294 296 297
309 308 306 306 295 292 290 296 296 292 269 277 282 284 288 288 282 289 291 286 281 278 278 276 281 280 279 278 279 275 280 280 278 276 270 278 268 278 283 285 288 290 292 293 296
309 306 306 303 292 290 293 295 293 287 265 279 281 291 288 282 283 283 289 285 279 279 278 276 278 278 278 279 281 277 281 279 279 276 273 272 270 273 280 281 285 287 290 294 298
308 305 304 297 294 293 295 292 288 272 264 270 280 280 280 282 282 284 283 286 284 280 279 278 282 280 279 282 282 283 280 278 276 274 262 271 271 271 276 281 284 287 291 294 295
305 304 300 297 290 294 292 285 273 267 273 269 270 279 278 278 278 279 278 277 276 266 265 275 277 280 283 278 279 279 273 264 261 260 263 273 272 273 280 283 284 289 291 292 293
304 301 298 296 294 292 286 277 267 264 264 278 277 278 275 277 276 277 276 272 278 274 265 265 265 276 278 276 274 275 273 265 259 263 267 275 270 274 282 283 286 290 290 290 290
303 293 292 293 295 289 279 267 269 268 276 276 276 269 263 275 275 275 272 270 277 274 265 263 268 278 279 278 279 276 266 276 269 272 266 271 273 278 282 282 282 284 286 286 287
294 291 290 294 293 283 273 273 270 279 280 278 270 272 262 262 269 269 267 273 275 280 274 271 265 276 278 279 279 277 279 269 269 259 263 269 271 271 276 278 281 282 282 284 287
296 282 290 293 287 276 268 266 272 280 281 278 275 270 271 268 267 263 265 271 278 278 277 268 270 271 274 269 273 273 271 269 268 269 264 264 268 276 277 279 279 281 282 283 284
292 278 289 290 273 273 266 271 280 278 279 279 279 277 275 274 267 269 266 272 280 281 276 276 268 268 269 276 277 276 274 273 267 265 269 268 267 280 280 280 279 280 282 283 284
287 280 288 286 268 267 271 274 278 277 278 276 276 278 278 275 268 273 275 280 281 280 273 273 266 260 266 269 273 268 276 276 274 272 266 264 267 278 278 279 280 280 281 283 284
282 275 282 278 273 271 268 269 271 280 279 279 277 278 277 276 276 267 275 280 282 281 285 282 271 266 263 266 264 266 270 274 271 268 268 269 270 274 276 277 279 280 280 281 282
285 276 274 273 276 267 273 275 275 274 276 279 277 276 274 267 274 274 276 277 279 283 281 275 265 269 273 274 274 272 271 272 271 272 268 270 271 274 277 278 280 281 281 281 282
285 280 279 267 271 271 272 273 276 276 275 272 274 277 276 270 274 273 275 275 275 277 277 276 267 267 269 273 273 271 273 272 273 273 273 273 272 279 280 281 279 280 280 280 281
289 283 280 276 274 270 271 274 277 278 278 279 278 277 276 278 279 278 278 278 278 276 275 272 265 263 263 270 269 262 268 268 271 274 274 270 276 280 278 279 280 280 280 281 283
Wind_Speed
18 18 19 19 19 19 19 18 17 17 16 16 17 16 12 9 15 25 20 17 18 23 19 14 6 11 6 3 4 4 2 7 7 7 12 1 4 5 5 2 4 3 4 2 15
17 17 19 19 20 18 18 18 17 18 19 20 20 18 14 4 5 21 18 21 22 24 11 11 12 11 6 5 4 4 6 9 6 9 11 10 2 7 4 6 2 2 4 8 15
18 21 23 21 19 21 20 19 20 23 23 22 22 22 15 4 8 7 23 21 20 17 8 4 6 4 3 4 6 6 8 5 6 10 12 16 3 5 6 6 8 9 10 14 12
17 19 17 17 19 21 21 17 16 16 18 18 20 18 11 5 7 6 20 20 16 9 12 9 8 7 6 5 8 10 9 7 8 7 7 6 2 8 3 8 6 8 16 14 16
16 16 18 19 18 19 19 14 12 14 15 17 21 18 8 8 5 9 17 15 8 7 8 8 9 6 4 6 9 1 12 18 19 16 10 12 6 8 8 11 6 6 11 14 13
13 15 16 16 17 18 16 14 12 14 14 14 15 10 9 19 7 8 10 11 8 6 5 5 3 4 3 5 2 6 11 14 11 14 7 9 13 4 5 4 6 10 13 13 16
12 13 14 16 15 17 13 13 13 14 16 12 10 2 13 8 5 6 7 8 3 3 4 2 1 5 4 8 4 9 7 9 5 7 7 5 18 17 10 9 8 9 7 11 15
13 13 13 14 14 17 14 11 11 13 14 9 4 4 6 2 6 15 11 12 10 3 4 5 1 1 1 7 9 7 3 5 6 11 8 6 24 7 6 7 9 10 9 11 12
12 13 14 15 16 18 17 10 6 11 9 8 7 6 5 11 12 10 3 7 7 9 4 3 3 4 7 6 7 8 8 11 11 7 3 6 15 17 10 11 9 6 8 9 12
9 10 12 14 17 19 12 6 8 11 8 3 3 4 7 8 7 10 8 4 4 10 7 11 7 5 7 10 5 11 10 10 14 11 13 12 14 7 14 5 9 8 6 6 7
8 10 11 13 15 19 8 5 8 9 11 4 3 2 5 8 4 11 7 7 7 7 7 6 10 8 6 4 6 6 7 9 11 14 20 15 14 11 10 13 7 8 9 7 7
8 9 11 12 12 18 5 7 2 3 2 2 2 3 4 4 4 10 8 7 7 6 8 8 6 6 6 7 7 8 7 8 10 19 17 16 22 14 15 12 11 10 9 10 6
7 8 11 14 4 8 8 4 1 1 4 3 2 3 5 2 3 8 7 4 6 9 6 4 3 6 7 9 9 9 6 8 12 18 12 13 10 7 9 10 8 8 9 9 11
4 6 10 7 7 1 4 4 3 2 8 9 6 4 5 5 4 3 4 3 8 6 4 1 3 5 9 5 3 10 5 12 17 13 6 8 9 14 20 14 7 8 8 10 10
1 4 7 8 3 4 1 3 2 4 6 3 7 4 8 5 5 3 4 5 2 4 5 6 5 10 6 4 3 8 8 11 18 14 6 5 5 8 9 11 12 12 15 10 15
4 4 3 4 3 1 2 3 4 10 5 6 4 6 6 5 6 8 7 5 1 3 3 7 4 2 4 4 4 9 6 15 4 1 3 7 2 6 6 3 13 20 11 7 11
7 8 4 2 2 2 1 4 8 7 4 6 2 4 2 4 5 6 5 6 4 8 6 7 5 4 1 5 6 6 6 5 8 5 6 5 8 7 18 13 14 8 10 9 7
7 6 5 2 2 2 3 8 6 3 6 3 1 1 2 5 2 6 4 4 3 4 2 3 11 2 2 1 5 5 4 4 6 5 13 12 8 8 10 7 4 7 6 9 13
8 2 2 3 4 3 7 6 10 8 5 3 3 6 7 4 2 5 2 3 3 3 4 3 8 5 4 3 1 3 2 6 5 12 6 6 8 10 17 6 4 7 9 12 13
3 2 1 4 3 5 7 6 3 5 5 1 4 3 2 5 4 5 2 4 2 3 2 3 8 4 5 4 4 5 3 3 3 5 7 7 12 12 10 9 7 12 10 13 12
2 3 2 4 3 7 5 8 6 5 3 7 6 3 4 2 3 3 5 7 4 4 3 4 4 8 5 3 3 4 4 2 3 3 5 10 11 7 12 5 10 12 8 12 14
3 2 3 3 5 3 3 7 4 4 2 2 5 6 8 5 3 4 7 7 6 7 5 6 4 6 10 10 7 6 4 4 3 5 4 9 23 6 19 12 9 15 20 18 16
3 2 2 4 4 3 3 3 2 3 4 5 6 5 4 8 1 7 5 5 8 6 5 4 3 6 11 8 6 2 4 1 3 3 13 8 18 3 10 21 22 23 22 19 16
5 1 2 4 2 7 5 5 3 3 2 3 3 4 4 5 7 4 4 4 5 7 8 5 5 9 10 11 3 15 14 13 7 8 13 21 35 35 29 23 22 15 17 18 20
3 6 5 5 6 4 4 6 4 6 2 4 3 6 8 5 5 7 6 5 4 7 5 6 6 7 17 21 20 25 27 19 18 22 15 34 20 29 28 26 22 21 17 18 20
7 6 2 3 2 7 6 8 11 4 10 6 6 8 7 7 10 9 6 5 5 2 5 1 6 3 17 16 17 24 24 21 22 22 21 28 34 27 28 22 18 17 13 14 15
3 2 4 4 5 5 7 8 13 10 9 6 11 6 9 17 9 6 4 5 6 5 4 2 2 4 9 10 13 10 11 7 5 7 7 9 19 19 18 18 15 14 13 9 10
Wind_Direction
34 34 30 23 20 17 15 7 7 10 4 2 356 3 12 15 29 39 38 355 349 344 335 320 358 346 336 274 259 143 192 216 216 212 256 69 345 298 286 197 71 30 166 201 151
29 32 27 21 15 7 15 9 14 11 1 1 360 357 351 349 76 44 2 357 354 356 354 354 343 346 350 312 283 185 194 222 209 217 257 272 209 302 348 299 28 71 343 153 145
21 24 25 11 8 2 10 11 13 8 358 357 356 346 356 147 70 345 352 355 0 360 338 319 355 11 350 330 308 291 252 221 239 242 249 271 235 245 248 281 237 199 172 160 159
20 23 18 10 8 1 1 13 10 356 356 355 3 6 14 47 64 296 337 344 349 360 11 356 1 28 10 1 336 322 329 329 300 288 289 274 319 312 261 248 295 243 171 164 176
16 12 14 9 1 358 360 1 7 358 355 3 6 13 30 53 51 299 326 327 334 9 27 10 37 9 12 320 321 273 331 325 318 309 308 298 246 245 229 250 308 122 161 181 193
12 8 8 3 355 351 354 352 2 360 1 3 6 14 71 66 288 317 320 329 348 8 9 46 358 288 275 278 239 310 301 298 300 300 269 274 283 212 271 207 192 171 187 192 187
5 1 359 2 351 349 351 350 350 354 349 359 350 358 49 49 312 306 310 288 278 312 329 265 321 49 318 304 339 274 295 307 255 272 284 302 269 250 232 240 192 213 223 198 202
6 359 357 352 354 351 346 342 342 343 338 354 57 75 73 287 326 4 336 340 330 303 238 282 352 133 49 292 322 311 335 350 329 339 304 241 260 301 257 260 220 224 213 210 209
5 357 353 354 355 353 344 330 346 351 359 8 39 73 4 325 3 320 329 305 317 334 15 312 66 87 4 19 9 11 331 326 323 310 299 29 318 329 302 299 278 249 250 231 216
3 355 355 357 360 356 347 15 359 21 353 17 67 31 12 318 316 318 327 355 13 349 10 21 40 50 21 38 346 316 322 308 306 316 320 297 281 305 307 355 320 327 337 318 276
358 357 358 6 11 5 7 21 21 357 33 75 244 80 285 296 320 332 329 352 19 52 17 347 51 22 330 358 294 281 296 294 306 311 320 294 276 271 279 300 297 292 296 284 273
350 354 355 2 40 19 55 70 105 230 66 3 9 289 298 353 320 327 17 45 35 41 358 20 47 348 341 12 352 324 303 308 303 329 324 307 286 268 268 259 255 264 271 270 260
341 350 347 339 79 48 67 66 48 93 85 351 351 324 294 338 325 320 20 352 41 17 31 101 274 343 16 346 350 327 296 328 316 321 301 352 294 304 256 233 245 246 240 254 251
340 349 351 354 53 141 51 340 24 75 76 308 344 346 336 351 336 300 353 40 21 18 4 255 303 352 334 323 11 321 337 331 318 333 295 28 291 310 307 306 273 259 247 239 244
323 349 2 45 158 62 266 348 48 50 55 279 310 302 326 48 332 320 331 22 344 321 63 268 306 324 324 271 339 256 312 303 295 285 333 292 267 268 306 286 290 340 338 3 360
125 348 32 31 50 101 7 47 56 43 267 327 320 356 15 12 334 318 9 11 354 31 336 257 277 216 235 292 275 276 327 312 327 44 26 274 316 288 276 342 329 336 347 3 2
116 65 59 52 153 308 100 67 38 112 326 291 299 12 29 321 328 28 355 359 35 21 350 324 296 286 10 323 313 26 27 331 343 355 234 270 316 247 285 300 334 324 352 348 355
116 81 42 78 345 10 55 51 80 227 229 316 249 37 84 359 326 331 3 1 21 70 29 60 334 312 55 173 269 298 155 174 272 302 292 301 257 246 245 322 300 291 304 352 352
113 38 44 349 0 52 66 56 201 197 173 182 54 55 318 335 320 0 38 228 232 152 141 28 271 314 313 284 354 301 2 224 258 264 274 231 274 298 274 196 279 326 356 2 352
108 65 293 325 34 68 75 238 193 190 131 100 154 129 235 277 15 35 350 236 225 175 139 248 299 251 290 333 277 202 299 358 337 310 291 281 281 250 287 271 336 335 1 347 347
102 36 293 349 65 53 165 223 227 227 155 153 185 150 213 283 176 264 235 281 212 175 109 157 148 287 16 197 239 338 318 13 120 209 269 305 272 226 254 246 313 314 328 329 325
127 311 306 29 60 85 158 197 195 164 116 170 147 170 166 168 238 263 238 218 207 155 183 208 189 278 251 277 256 211 264 176 143 282 295 306 271 242 258 296 344 320 315 317 319
155 206 335 88 158 238 288 306 248 156 206 179 179 183 185 160 194 200 226 258 210 181 191 203 275 324 336 355 356 146 193 157 315 288 255 253 266 240 317 311 296 302 301 302 305
105 193 302 55 162 137 151 234 214 221 209 201 179 107 146 190 187 234 241 272 218 207 206 171 201 183 224 242 192 281 258 260 236 256 284 241 273 281 280 290 294 287 287 292 292
140 231 188 183 234 178 153 160 161 194 221 200 259 218 168 175 191 208 217 261 244 244 228 152 243 228 248 265 271 270 277 274 249 250 247 273 267 275 284 292 292 289 284 284 284
153 155 129 170 140 126 198 210 184 191 152 235 223 197 181 178 196 186 180 178 221 297 185 127 268 327 288 268 265 276 271 266 259 260 249 259 273 267 274 278 283 283 277 267 274
139 80 124 164 151 111 223 200 199 155 213 190 203 145 187 233 234 240 215 209 223 183 207 216 138 359 270 331 309 292 249 213 243 211 208 240 255 291 295 282 291 299 284 262 269